| time (UTC) | temp C | wind direction | speed KPH | gust KPH | rain 1hr cm | rain 24hr cm | rain mn cm | humidity % | barometer mb |
| 20260507081914 | 10 | 264 | 11.3 | 20.9 | 0.00 | 0.46 | 0.05 | 90 | 1012.1 |
| 20260507081415 | 10 | 239 | 12.9 | 20.9 | 0.00 | 0.46 | 0.05 | 90 | 1012.1 |
| 20260507080911 | 10 | 206 | 8.0 | 16.1 | 0.00 | 0.46 | 0.05 | 91 | 1012.1 |
| 20260507080412 | 10 | 216 | 9.7 | 17.7 | 0.00 | 0.46 | 0.05 | 91 | 1012.1 |
| 20260507075913 | 10 | 247 | 8.0 | 17.7 | 0.00 | 0.46 | 0.05 | 91 | 1012.0 |
| 20260507075409 | 10 | 230 | 9.7 | 16.1 | 0.00 | 0.46 | 0.05 | 92 | 1011.9 |
| 20260507074906 | 10 | 276 | 8.0 | 12.9 | 0.00 | 0.46 | 0.05 | 92 | 1011.9 |
| 20260507074640 | 10 | 211 | 6.4 | 12.9 | 0.00 | 0.46 | 0.05 | 92 | 1011.9 |
| 20260507073908 | 10 | 245 | 6.4 | 17.7 | 0.00 | 0.46 | 0.05 | 92 | 1011.9 |
| 20260507073402 | 10 | 263 | 11.3 | 17.7 | 0.00 | 0.46 | 0.05 | 92 | 1011.8 |
| 20260507073129 | 10 | 206 | 6.4 | 11.3 | 0.00 | 0.46 | 0.05 | 92 | 1011.8 |
| 20260507072626 | 10 | 233 | 6.4 | 14.5 | 0.00 | 0.46 | 0.05 | 92 | 1011.8 |
| 20260507071900 | 9 | 178 | 3.2 | 16.1 | 0.00 | 0.46 | 0.05 | 92 | 1011.7 |
| 20260507071401 | 9 | 182 | 6.4 | 16.1 | 0.00 | 0.46 | 0.05 | 92 | 1011.7 |
| 20260507070857 | 9 | 216 | 8.0 | 16.1 | 0.00 | 0.46 | 0.05 | 92 | 1011.6 |
| 20260507070355 | 9 | 216 | 6.4 | 16.1 | 0.00 | 0.46 | 0.05 | 92 | 1011.7 |
| 20260507065855 | 9 | 199 | 6.4 | 16.1 | 0.00 | 0.46 | 0.05 | 92 | 1011.6 |
| 20260507065350 | 9 | 216 | 6.4 | 12.9 | 0.00 | 0.46 | 0.05 | 92 | 1011.6 |
| 20260507064850 | 9 | 172 | 3.2 | 16.1 | 0.00 | 0.46 | 0.05 | 92 | 1011.5 |
| 20260507064352 | 9 | 216 | 6.4 | 17.7 | 0.00 | 0.46 | 0.05 | 91 | 1011.6 |
| 20260507063847 | 9 | 233 | 6.4 | 17.7 | 0.00 | 0.46 | 0.05 | 91 | 1011.5 |
| 20260507063344 | 9 | 211 | 6.4 | 16.1 | 0.00 | 0.46 | 0.05 | 91 | 1011.5 |
| 20260507062846 | 9 | 237 | 8.0 | 16.1 | 0.00 | 0.46 | 0.05 | 91 | 1011.4 |
| 20260507062344 | 9 | 206 | 6.4 | 16.1 | 0.00 | 0.46 | 0.05 | 90 | 1011.4 |
| 20260507061843 | 9 | 199 | 8.0 | 17.7 | 0.00 | 0.46 | 0.05 | 90 | 1011.3 |
| 20260507061337 | 9 | 203 | 9.7 | 17.7 | 0.00 | 0.46 | 0.05 | 90 | 1011.2 |
| 20260507060840 | 9 | 228 | 8.0 | 19.3 | 0.00 | 0.46 | 0.05 | 91 | 1011.2 |
| 20260507060338 | 9 | 130 | 12.9 | 19.3 | 0.00 | 0.46 | 0.05 | 91 | 1011.1 |
| 20260507055837 | 9 | 206 | 9.7 | 20.9 | 0.00 | 0.46 | 0.05 | 91 | 1011.1 |
| 20260507055616 | 9 | 245 | 9.7 | 20.9 | 0.00 | 0.46 | 0.05 | 91 | 1010.9 |
| 20260507054833 | 9 | 259 | 6.4 | 16.1 | 0.00 | 0.46 | 0.05 | 92 | 1010.8 |
| 20260507054334 | 9 | 155 | 6.4 | 16.1 | 0.00 | 0.46 | 0.05 | 92 | 1010.8 |
| 20260507053831 | 8 | 197 | 4.8 | 16.1 | 0.00 | 0.46 | 0.05 | 92 | 1010.7 |
| 20260507053331 | 8 | 229 | 4.8 | 16.1 | 0.00 | 0.46 | 0.05 | 92 | 1010.7 |
| 20260507052827 | 8 | 266 | 6.4 | 16.1 | 0.00 | 0.46 | 0.05 | 92 | 1010.6 |
| 20260507052323 | 8 | 239 | 9.7 | 16.1 | 0.03 | 0.46 | 0.05 | 92 | 1010.6 |
| 20260507051824 | 8 | 231 | 4.8 | 17.7 | 0.03 | 0.46 | 0.05 | 92 | 1010.6 |
| 20260507051323 | 8 | 226 | 9.7 | 17.7 | 0.03 | 0.46 | 0.05 | 91 | 1010.5 |
| 20260507050822 | 8 | 197 | 8.0 | 14.5 | 0.03 | 0.46 | 0.05 | 92 | 1010.6 |
| 20260507050610 | 8 | 264 | 4.8 | 17.7 | 0.03 | 0.46 | 0.05 | 92 | 1010.5 |
| 20260507045820 | 8 | 233 | 8.0 | 17.7 | 0.03 | 0.46 | 0.05 | 91 | 1010.5 |
| 20260507045317 | 8 | 244 | 8.0 | 14.5 | 0.03 | 0.46 | 0.05 | 92 | 1010.4 |
| 20260507044817 | 8 | 248 | 4.8 | 12.9 | 0.03 | 0.46 | 0.05 | 92 | 1010.4 |
| 20260507044548 | 8 | 272 | 6.4 | 16.1 | 0.03 | 0.46 | 0.05 | 92 | 1010.4 |
| 20260507044043 | 8 | 226 | 6.4 | 16.1 | 0.03 | 0.46 | 0.05 | 92 | 1010.4 |
| 20260507043311 | 8 | 196 | 4.8 | 12.9 | 0.03 | 0.46 | 0.05 | 91 | 1010.4 |
| 20260507042810 | 8 | 242 | 4.8 | 14.5 | 0.03 | 0.46 | 0.05 | 91 | 1010.3 |
| 20260507042307 | 8 | 216 | 8.0 | 14.5 | 0.00 | 0.43 | 0.03 | 91 | 1010.2 |
| 20260507041809 | 8 | 216 | 6.4 | 17.7 | 0.00 | 0.43 | 0.03 | 91 | 1010.1 |
| 20260507041305 | 8 | 270 | 8.0 | 17.7 | 0.00 | 0.43 | 0.03 | 91 | 1010.0 |
| 20260507040805 | 8 | 241 | 8.0 | 16.1 | 0.00 | 0.43 | 0.03 | 92 | 1010.0 |
| 20260507040316 | 8 | 249 | 8.0 | 16.1 | 0.00 | 0.43 | 0.03 | 92 | 1009.9 |
| 20260507035300 | 9 | 237 | 3.2 | 12.9 | 0.00 | 0.43 | 0.03 | 92 | 1009.9 |
| 20260507034759 | 9 | 227 | 3.2 | 14.5 | 0.00 | 0.43 | 0.03 | 91 | 1009.9 |
| 20260507034529 | 9 | 239 | 8.0 | 14.5 | 0.00 | 0.46 | 0.03 | 91 | 1009.8 |
| 20260507033755 | 9 | 216 | 4.8 | 11.3 | 0.00 | 0.46 | 0.03 | 91 | 1009.8 |
| 20260507032750 | 9 | 216 | 4.8 | 14.5 | 0.00 | 0.46 | 0.03 | 91 | 1009.7 |
| 20260507032252 | 9 | 247 | 6.4 | 17.7 | 0.00 | 0.46 | 0.03 | 91 | 1009.7 |
| 20260507031752 | 9 | 240 | 8.0 | 17.7 | 0.00 | 0.46 | 0.03 | 91 | 1009.7 |
| 20260507031250 | 9 | 235 | 6.4 | 14.5 | 0.00 | 0.46 | 0.03 | 91 | 1009.7 |
| 20260507030748 | 9 | 270 | 1.6 | 8.0 | 0.00 | 0.46 | 0.03 | 92 | 1009.7 |
| 20260507030243 | 9 | 241 | 4.8 | 11.3 | 0.00 | 0.46 | 0.03 | 92 | 1009.6 |
| 20260507025748 | 10 | 216 | 4.8 | 11.3 | 0.00 | 0.46 | 0.03 | 92 | 1009.6 |
| 20260507024743 | 10 | 266 | 8.0 | 12.9 | 0.00 | 0.46 | 0.03 | 92 | 1009.6 |
| 20260507024242 | 10 | 248 | 3.2 | 11.3 | 0.00 | 0.46 | 0.03 | 92 | 1009.6 |
| 20260507023740 | 10 | 264 | 4.8 | 11.3 | 0.00 | 0.46 | 0.03 | 92 | 1009.5 |
| 20260507022737 | 10 | 235 | 3.2 | 9.7 | 0.00 | 0.46 | 0.03 | 92 | 1009.6 |
| 20260507022459 | 10 | 216 | 3.2 | 9.7 | 0.00 | 0.46 | 0.03 | 92 | 1009.5 |
| 20260507021734 | 10 | 242 | 3.2 | 9.7 | 0.00 | 0.46 | 0.03 | 92 | 1009.5 |
| 20260507021234 | 10 | 236 | 4.8 | 14.5 | 0.00 | 0.46 | 0.03 | 92 | 1009.5 |
| 20260507020730 | 10 | 216 | 3.2 | 14.5 | 0.00 | 0.46 | 0.03 | 92 | 1009.4 |
| 20260507020233 | 10 | 206 | 3.2 | 14.5 | 0.00 | 0.46 | 0.03 | 92 | 1009.4 |
| 20260507015729 | 10 | 216 | 3.2 | 14.5 | 0.00 | 0.46 | 0.03 | 92 | 1009.4 |
| 20260507015228 | 10 | 183 | 1.6 | 14.5 | 0.00 | 0.46 | 0.03 | 92 | 1009.4 |
| 20260507014726 | 10 | 239 | 3.2 | 16.1 | 0.00 | 0.46 | 0.03 | 92 | 1009.4 |
| 20260507014453 | 10 | 237 | 4.8 | 16.1 | 0.00 | 0.46 | 0.03 | 92 | 1009.4 |
| 20260507013724 | 10 | 216 | 3.2 | 9.7 | 0.00 | 0.46 | 0.03 | 92 | 1009.4 |
| 20260507013217 | 10 | 216 | 4.8 | 11.3 | 0.00 | 0.46 | 0.03 | 92 | 1009.3 |
| 20260507012219 | 10 | 211 | 4.8 | 14.5 | 0.00 | 0.46 | 0.03 | 92 | 1009.3 |
| 20260507011719 | 10 | 216 | 4.8 | 12.9 | 0.00 | 0.46 | 0.03 | 92 | 1009.2 |
| 20260507011222 | 10 | 254 | 6.4 | 16.1 | 0.00 | 0.46 | 0.03 | 92 | 1009.2 |
| 20260507010958 | 10 | 245 | 9.7 | 16.1 | 0.00 | 0.46 | 0.03 | 92 | 1009.1 |
| 20260507010437 | 10 | 199 | 3.2 | 16.1 | 0.00 | 0.46 | 0.03 | 92 | 1009.2 |
| 20260507005932 | 10 | 192 | 4.8 | 14.5 | 0.00 | 0.46 | 0.03 | 93 | 1009.2 |
| 20260507005212 | 10 | 224 | 6.4 | 14.5 | 0.00 | 0.46 | 0.03 | 92 | 1009.3 |
| 20260507004941 | 10 | 236 | 4.8 | 9.7 | 0.00 | 0.46 | 0.03 | 92 | 1009.2 |
| 20260507004209 | 10 | 211 | 4.8 | 12.9 | 0.00 | 0.46 | 0.03 | 92 | 1009.2 |
| 20260507003710 | 10 | 170 | 3.2 | 14.5 | 0.00 | 0.46 | 0.03 | 92 | 1009.2 |
| 20260507003211 | 10 | 211 | 4.8 | 14.5 | 0.03 | 0.46 | 0.03 | 92 | 1009.1 |
| 20260507002705 | 10 | 216 | 1.6 | 8.0 | 0.03 | 0.46 | 0.03 | 92 | 1009.1 |
| 20260507002428 | 10 | 216 | 3.2 | 8.0 | 0.03 | 0.46 | 0.03 | 92 | 1009.1 |
| 20260507001702 | 10 | 222 | 3.2 | 12.9 | 0.03 | 0.46 | 0.03 | 92 | 1009.1 |
| 20260507001204 | 10 | 255 | 6.4 | 12.9 | 0.03 | 0.46 | 0.03 | 92 | 1009.2 |
| 20260507000701 | 10 | 273 | 6.4 | 11.3 | 0.03 | 0.46 | 0.03 | 92 | 1009.2 |
| 20260507000200 | 10 | 211 | 3.2 | 11.3 | 0.03 | 0.46 | 0.03 | 92 | 1009.2 |
| 20260506235700 | 10 | 216 | 1.6 | 11.3 | 0.03 | 0.46 | 0.03 | 92 | 1009.2 |
| 20260506235157 | 10 | 216 | 4.8 | 12.9 | 0.03 | 0.46 | 0.03 | 92 | 1009.2 |
| 20260506234656 | 10 | 222 | 3.2 | 12.9 | 0.03 | 0.46 | 0.03 | 92 | 1009.2 |
| 20260506234152 | 10 | 222 | 6.4 | 16.1 | 0.03 | 0.46 | 0.03 | 92 | 1009.2 |
| 20260506233922 | 10 | 216 | 8.0 | 16.1 | 0.03 | 0.46 | 0.03 | 92 | 1009.1 |
| 20260506232916 | 10 | 237 | 4.8 | 12.9 | 0.00 | 0.43 | 0.00 | 92 | 1009.1 |
| 20260506231637 | 11 | 243 | 4.8 | 12.9 | 0.00 | 0.43 | 0.00 | 92 | 1009.1 |
| 20260506231139 | 11 | 224 | 4.8 | 12.9 | 0.00 | 0.43 | 0.00 | 92 | 1009.0 |
| 20260506230635 | 11 | 206 | 3.2 | 8.0 | 0.00 | 0.43 | 0.00 | 92 | 1009.0 |
| 20260506230136 | 11 | 206 | 3.2 | 8.0 | 0.00 | 0.43 | 0.00 | 92 | 1008.9 |
| 20260506225635 | 11 | 199 | 4.8 | 9.7 | 0.00 | 0.43 | 0.00 | 92 | 1008.9 |
| 20260506225403 | 11 | 216 | 1.6 | 11.3 | 0.00 | 0.43 | 0.00 | 92 | 1008.9 |
| 20260506224628 | 11 | 242 | 4.8 | 11.3 | 0.00 | 0.43 | 0.00 | 92 | 1008.8 |
| 20260506224134 | 11 | 251 | 1.6 | 8.0 | 0.00 | 0.43 | 0.00 | 92 | 1008.9 |
| 20260506223129 | 11 | 224 | 1.6 | 9.7 | 0.03 | 0.43 | 0.00 | 92 | 1008.8 |
| 20260506222628 | 11 | 250 | 0.0 | 11.3 | 0.03 | 0.43 | 0.00 | 92 | 1008.7 |
| 20260506222126 | 11 | 279 | 6.4 | 11.3 | 0.03 | 0.43 | 0.00 | 92 | 1008.6 |
| 20260506221623 | 11 | 261 | 3.2 | 8.0 | 0.03 | 0.43 | 0.00 | 92 | 1008.6 |
| 20260506221123 | 11 | 279 | 3.2 | 8.0 | 0.05 | 0.43 | 0.00 | 92 | 1008.7 |
| 20260506220627 | 11 | 216 | 3.2 | 4.8 | 0.08 | 0.43 | 0.00 | 92 | 1008.6 |
| 20260506215619 | 11 | 244 | 1.6 | 6.4 | 0.15 | 0.43 | 0.43 | 92 | 1008.6 |
| 20260506215346 | 11 | 243 | 3.2 | 6.4 | 0.23 | 0.43 | 0.43 | 92 | 1008.6 |
| 20260506214617 | 11 | 248 | 3.2 | 8.0 | 0.28 | 0.43 | 0.43 | 92 | 1008.6 |
| 20260506214113 | 11 | 243 | 4.8 | 8.0 | 0.30 | 0.43 | 0.43 | 92 | 1008.7 |
| 20260506213613 | 11 | 252 | 1.6 | 8.0 | 0.30 | 0.43 | 0.43 | 92 | 1008.8 |
| 20260506213111 | 11 | 233 | 6.4 | 9.7 | 0.30 | 0.43 | 0.43 | 92 | 1008.7 |
| 20260506212844 | 11 | 257 | 6.4 | 9.7 | 0.33 | 0.43 | 0.43 | 92 | 1008.8 |
| 20260506212111 | 11 | 216 | 4.8 | 11.3 | 0.33 | 0.43 | 0.43 | 92 | 1008.8 |
| 20260506211606 | 11 | 195 | 6.4 | 11.3 | 0.33 | 0.43 | 0.43 | 92 | 1008.8 |
| 20260506211109 | 11 | 256 | 3.2 | 11.3 | 0.33 | 0.38 | 0.38 | 91 | 1008.8 |
| 20260506210604 | 11 | 237 | 4.8 | 12.9 | 0.30 | 0.36 | 0.36 | 91 | 1008.8 |
| 20260506210109 | 11 | 238 | 4.8 | 16.1 | 0.25 | 0.33 | 0.33 | 91 | 1008.8 |
| 20260506205603 | 11 | 216 | 6.4 | 16.1 | 0.20 | 0.25 | 0.28 | 91 | 1008.8 |
| 20260506205103 | 11 | 216 | 6.4 | 17.7 | 0.15 | 0.23 | 0.23 | 91 | 1008.8 |
| 20260506204601 | 11 | 244 | 6.4 | 17.7 | 0.10 | 0.15 | 0.18 | 90 | 1008.8 |
| 20260506204100 | 11 | 203 | 8.0 | 16.1 | 0.08 | 0.15 | 0.15 | 90 | 1008.7 |
| 20260506203558 | 11 | 168 | 3.2 | 12.9 | 0.05 | 0.13 | 0.13 | 90 | 1008.6 |
| 20260506203057 | 11 | 224 | 1.6 | 6.4 | 0.05 | 0.13 | 0.13 | 90 | 1008.6 |
| 20260506202554 | 11 | 242 | 0.0 | 3.2 | 0.05 | 0.10 | 0.10 | 90 | 1008.6 |
| 20260506202056 | 11 | 242 | 1.6 | 6.4 | 0.05 | 0.10 | 0.10 | 89 | 1008.5 |
| 20260506200546 | 11 | 254 | 1.6 | 8.0 | 0.00 | 0.05 | 0.05 | 89 | 1008.6 |
| 20260506200053 | 11 | 182 | 3.2 | 8.0 | 0.00 | 0.05 | 0.05 | 89 | 1008.5 |
| 20260506195803 | 11 | 211 | 1.6 | 11.3 | 0.00 | 0.05 | 0.05 | 89 | 1008.3 |
| 20260506195037 | 11 | 255 | 4.8 | 11.3 | 0.00 | 0.05 | 0.05 | 89 | 1008.3 |
| 20260506194540 | 11 | 211 | 4.8 | 8.0 | 0.00 | 0.05 | 0.05 | 89 | 1008.2 |
| 20260506194040 | 11 | 211 | 1.6 | 6.4 | 0.00 | 0.05 | 0.05 | 89 | 1008.1 |
| 20260506193539 | 11 | 285 | 0.0 | 3.2 | 0.00 | 0.05 | 0.05 | 89 | 1008.0 |
| 20260506193037 | 11 | 285 | 0.0 | 4.8 | 0.00 | 0.05 | 0.05 | 89 | 1008.0 |
| 20260506192538 | 11 | 285 | 0.0 | 6.4 | 0.00 | 0.05 | 0.05 | 90 | 1007.9 |
| 20260506192039 | 11 | 285 | 1.6 | 6.4 | 0.00 | 0.05 | 0.05 | 90 | 1007.8 |
| 20260506191032 | 11 | 318 | 0.0 | 3.2 | 0.00 | 0.05 | 0.05 | 90 | 1007.8 |
| 20260506190535 | 11 | 318 | 0.0 | 6.4 | 0.00 | 0.05 | 0.05 | 89 | 1007.7 |
| 20260506190029 | 11 | 318 | 0.0 | 6.4 | 0.00 | 0.05 | 0.05 | 89 | 1007.7 |
| 20260506185530 | 11 | 295 | 0.0 | 3.2 | 0.00 | 0.05 | 0.05 | 88 | 1007.7 |
| 20260506185027 | 12 | 228 | 0.0 | 3.2 | 0.03 | 0.05 | 0.05 | 88 | 1007.7 |
| 20260506184529 | 12 | 228 | 0.0 | 8.0 | 0.03 | 0.05 | 0.05 | 89 | 1007.5 |
| 20260506183751 | 12 | 302 | 1.6 | 4.8 | 0.03 | 0.05 | 0.05 | 89 | 1007.2 |
| 20260506182525 | 12 | 314 | 3.2 | 3.2 | 0.05 | 0.08 | 0.05 | 90 | 1007.2 |
| 20260506182014 | 12 | 318 | 1.6 | 6.4 | 0.05 | 0.08 | 0.05 | 90 | 1007.1 |
| 20260506181516 | 12 | 325 | 3.2 | 6.4 | 0.05 | 0.10 | 0.05 | 89 | 1006.9 |
| 20260506181239 | 12 | 318 | 0.0 | 4.8 | 0.05 | 0.15 | 0.05 | 89 | 1006.9 |
| 20260506180510 | 12 | 318 | 1.6 | 4.8 | 0.05 | 0.15 | 0.05 | 89 | 1007.1 |
| 20260506180013 | 12 | 318 | 0.0 | 4.8 | 0.05 | 0.20 | 0.05 | 89 | 1007.1 |
| 20260506175738 | 13 | 318 | 1.6 | 4.8 | 0.05 | 0.30 | 0.05 | 89 | 1007.2 |
| 20260506175008 | 13 | 332 | 0.0 | 3.2 | 0.03 | 0.38 | 0.05 | 88 | 1007.1 |
| 20260506174507 | 13 | 330 | 1.6 | 3.2 | 0.03 | 0.58 | 0.05 | 87 | 1007.1 |
| 20260506174240 | 13 | 268 | 1.6 | 3.2 | 0.03 | 0.76 | 0.05 | 86 | 1007.1 |
| 20260506173503 | 13 | 262 | 0.0 | 3.2 | 0.03 | 0.89 | 0.05 | 83 | 1007.2 |
| 20260506173003 | 13 | 260 | 0.0 | 4.8 | 0.03 | 0.89 | 0.05 | 82 | 1007.2 |
| 20260506172504 | 13 | 260 | 1.6 | 6.4 | 0.00 | 0.89 | 0.03 | 81 | 1007.2 |
| 20260506172004 | 14 | 259 | 3.2 | 8.0 | 0.00 | 0.89 | 0.03 | 81 | 1007.2 |
| 20260506171458 | 14 | 287 | 3.2 | 12.9 | 0.00 | 0.89 | 0.03 | 80 | 1007.1 |
| 20260506171000 | 14 | 292 | 4.8 | 12.9 | 0.00 | 0.89 | 0.03 | 79 | 1007.0 |
| 20260506170456 | 15 | 291 | 4.8 | 11.3 | 0.00 | 0.89 | 0.03 | 78 | 1006.9 |
| 20260506165728 | 15 | 316 | 6.4 | 11.3 | 0.00 | 0.89 | 0.03 | 75 | 1006.8 |
| 20260506164951 | 15 | 305 | 3.2 | 11.3 | 0.00 | 0.89 | 0.03 | 74 | 1006.7 |
| 20260506164447 | 15 | 316 | 4.8 | 11.3 | 0.00 | 0.89 | 0.03 | 72 | 1006.7 |
| 20260506163952 | 16 | 294 | 3.2 | 8.0 | 0.00 | 0.89 | 0.03 | 72 | 1006.8 |
| 20260506163450 | 16 | 304 | 3.2 | 6.4 | 0.00 | 0.89 | 0.03 | 72 | 1006.7 |
| 20260506162948 | 16 | 310 | 1.6 | 6.4 | 0.00 | 0.89 | 0.03 | 71 | 1006.7 |
| 20260506162446 | 16 | 320 | 0.0 | 6.4 | 0.00 | 0.89 | 0.03 | 70 | 1006.8 |
| 20260506161946 | 16 | 317 | 3.2 | 9.7 | 0.00 | 0.89 | 0.03 | 69 | 1006.8 |
| 20260506161442 | 16 | 297 | 4.8 | 9.7 | 0.00 | 0.89 | 0.03 | 68 | 1006.8 |
| 20260506160941 | 16 | 324 | 1.6 | 6.4 | 0.00 | 0.89 | 0.03 | 68 | 1006.8 |
| 20260506160442 | 16 | 326 | 1.6 | 6.4 | 0.00 | 0.89 | 0.03 | 68 | 1006.7 |
| 20260506155933 | 16 | 349 | 0.0 | 3.2 | 0.00 | 0.89 | 0.03 | 68 | 1006.8 |
| 20260506155434 | 16 | 347 | 0.0 | 3.2 | 0.00 | 0.89 | 0.03 | 69 | 1006.8 |
| 20260506154932 | 16 | 347 | 0.0 | 4.8 | 0.00 | 0.89 | 0.03 | 69 | 1006.9 |
| 20260506154209 | 16 | 347 | 0.0 | 6.4 | 0.00 | 0.89 | 0.03 | 68 | 1006.9 |
| 20260506153431 | 16 | 326 | 3.2 | 6.4 | 0.00 | 0.89 | 0.03 | 68 | 1006.9 |
| 20260506153152 | 17 | 32 | 1.6 | 6.4 | 0.00 | 0.89 | 0.03 | 68 | 1006.8 |
| 20260506152656 | 17 | 325 | 3.2 | 6.4 | 0.00 | 0.89 | 0.03 | 67 | 1006.9 |
| 20260506151925 | 17 | 322 | 1.6 | 4.8 | 0.00 | 0.89 | 0.03 | 66 | 1006.9 |
| 20260506151425 | 17 | 314 | 0.0 | 4.8 | 0.00 | 0.89 | 0.03 | 66 | 1006.9 |
| 20260506150922 | 17 | 287 | 3.2 | 4.8 | 0.00 | 0.89 | 0.03 | 64 | 1006.9 |
| 20260506150421 | 17 | 211 | 0.0 | 3.2 | 0.00 | 0.89 | 0.03 | 63 | 1007.0 |
| 20260506150216 | 17 | 202 | 0.0 | 4.8 | 0.00 | 0.89 | 0.03 | 62 | 1006.9 |
| 20260506145419 | 17 | 228 | 1.6 | 6.4 | 0.00 | 0.89 | 0.03 | 64 | 1007.0 |
| 20260506144919 | 17 | 270 | 1.6 | 6.4 | 0.00 | 0.89 | 0.03 | 66 | 1006.9 |
| 20260506143915 | 17 | 327 | 0.0 | 9.7 | 0.00 | 0.89 | 0.03 | 66 | 1007.0 |
| 20260506143414 | 17 | 270 | 4.8 | 6.4 | 0.00 | 0.89 | 0.03 | 62 | 1007.0 |
| 20260506142913 | 17 | 223 | 3.2 | 6.4 | 0.00 | 0.89 | 0.03 | 62 | 1007.0 |
| 20260506142412 | 18 | 220 | 1.6 | 3.2 | 0.00 | 0.89 | 0.03 | 63 | 1006.9 |
| 20260506141911 | 17 | 249 | 0.0 | 8.0 | 0.00 | 0.89 | 0.03 | 64 | 1006.9 |
| 20260506141409 | 18 | 251 | 3.2 | 8.0 | 0.00 | 0.89 | 0.03 | 61 | 1007.0 |
| 20260506140910 | 17 | 237 | 4.8 | 8.0 | 0.00 | 0.89 | 0.03 | 61 | 1007.1 |
| 20260506140404 | 17 | 293 | 1.6 | 9.7 | 0.00 | 0.89 | 0.03 | 63 | 1007.1 |
| 20260506140205 | 17 | 216 | 3.2 | 9.7 | 0.00 | 0.89 | 0.03 | 62 | 1007.2 |
| 20260506135402 | 17 | 124 | 4.8 | 9.7 | 0.00 | 0.89 | 0.03 | 62 | 1007.3 |
| 20260506134858 | 17 | 160 | 1.6 | 8.0 | 0.00 | 0.89 | 0.03 | 62 | 1007.3 |
| 20260506134357 | 17 | 206 | 4.8 | 8.0 | 0.00 | 0.89 | 0.03 | 62 | 1007.2 |
| 20260506133857 | 17 | 216 | 0.0 | 8.0 | 0.00 | 0.89 | 0.03 | 63 | 1007.3 |
| 20260506133355 | 17 | 262 | 4.8 | 8.0 | 0.00 | 0.89 | 0.03 | 62 | 1007.4 |
| 20260506132852 | 17 | 197 | 4.8 | 12.9 | 0.00 | 0.89 | 0.03 | 62 | 1007.5 |
| 20260506132352 | 17 | 189 | 4.8 | 12.9 | 0.00 | 0.89 | 0.03 | 63 | 1007.6 |
| 20260506131850 | 17 | 142 | 4.8 | 9.7 | 0.00 | 0.89 | 0.03 | 63 | 1007.6 |
| 20260506131347 | 17 | 236 | 3.2 | 12.9 | 0.00 | 0.89 | 0.03 | 62 | 1007.6 |
| 20260506130849 | 17 | 266 | 3.2 | 12.9 | 0.00 | 0.89 | 0.03 | 62 | 1007.6 |
| 20260506130347 | 17 | 206 | 3.2 | 16.1 | 0.00 | 0.89 | 0.03 | 61 | 1007.8 |
| 20260506125849 | 17 | 220 | 9.7 | 16.1 | 0.00 | 0.89 | 0.03 | 61 | 1007.8 |
| 20260506124843 | 17 | 189 | 4.8 | 14.5 | 0.00 | 0.89 | 0.03 | 62 | 1007.7 |
| 20260506124339 | 17 | 253 | 1.6 | 8.0 | 0.00 | 0.89 | 0.03 | 62 | 1007.7 |
| 20260506123833 | 17 | 228 | 3.2 | 11.3 | 0.00 | 0.89 | 0.03 | 63 | 1007.6 |
| 20260506123334 | 17 | 127 | 4.8 | 16.1 | 0.00 | 0.89 | 0.03 | 61 | 1007.7 |
| 20260506122836 | 17 | 206 | 6.4 | 16.1 | 0.00 | 0.89 | 0.03 | 63 | 1007.6 |
| 20260506122343 | 17 | 192 | 4.8 | 14.5 | 0.00 | 0.89 | 0.03 | 63 | 1007.7 |
| 20260506121833 | 17 | 260 | 6.4 | 14.5 | 0.00 | 0.89 | 0.03 | 62 | 1007.8 |
| 20260506121332 | 17 | 206 | 3.2 | 14.5 | 0.00 | 0.89 | 0.03 | 66 | 1007.9 |
| 20260506120830 | 17 | 203 | 8.0 | 14.5 | 0.00 | 0.89 | 0.03 | 66 | 1007.9 |
| 20260506120331 | 16 | 170 | 1.6 | 9.7 | 0.00 | 0.89 | 0.03 | 70 | 1007.9 |
| 20260506120048 | 17 | 206 | 3.2 | 14.5 | 0.00 | 0.89 | 0.03 | 69 | 1007.9 |
| 20260506115327 | 17 | 216 | 6.4 | 16.1 | 0.00 | 0.89 | 0.03 | 68 | 1008.0 |
| 20260506115045 | 17 | 222 | 6.4 | 14.5 | 0.00 | 0.89 | 0.03 | 67 | 1008.0 |
| 20260506114326 | 17 | 216 | 6.4 | 17.7 | 0.00 | 0.89 | 0.03 | 70 | 1008.1 |
| 20260506113823 | 16 | 197 | 9.7 | 17.7 | 0.00 | 0.89 | 0.03 | 71 | 1008.0 |
| 20260506113320 | 16 | 137 | 6.4 | 12.9 | 0.00 | 0.89 | 0.03 | 71 | 1008.0 |
| 20260506112820 | 16 | 254 | 3.2 | 12.9 | 0.00 | 0.89 | 0.03 | 72 | 1008.2 |
| 20260506112319 | 16 | 277 | 4.8 | 11.3 | 0.00 | 0.89 | 0.03 | 72 | 1008.2 |
| 20260506111816 | 16 | 264 | 6.4 | 14.5 | 0.00 | 0.89 | 0.03 | 71 | 1008.2 |
| 20260506111544 | 16 | 216 | 8.0 | 14.5 | 0.00 | 0.89 | 0.03 | 71 | 1008.2 |
| 20260506111123 | 17 | 195 | 4.8 | 12.9 | 0.00 | 0.89 | 0.03 | 71 | 1008.2 |
| 20260506110311 | 16 | 142 | 4.8 | 19.3 | 0.00 | 0.89 | 0.03 | 72 | 1008.2 |
| 20260506105813 | 16 | 167 | 6.4 | 19.3 | 0.00 | 0.89 | 0.03 | 73 | 1008.2 |
| 20260506105309 | 16 | 144 | 3.2 | 14.5 | 0.00 | 0.89 | 0.03 | 73 | 1008.2 |
| 20260506104809 | 16 | 178 | 6.4 | 14.5 | 0.00 | 0.89 | 0.03 | 72 | 1008.3 |
| 20260506104307 | 16 | 180 | 8.0 | 12.9 | 0.00 | 0.89 | 0.03 | 72 | 1008.4 |
| 20260506103805 | 16 | 142 | 6.4 | 14.5 | 0.00 | 0.89 | 0.03 | 74 | 1008.4 |
| 20260506103304 | 16 | 191 | 4.8 | 14.5 | 0.00 | 0.89 | 0.03 | 74 | 1008.4 |
| 20260506102804 | 16 | 191 | 4.8 | 14.5 | 0.00 | 0.89 | 0.03 | 74 | 1008.3 |
| 20260506102305 | 15 | 203 | 4.8 | 14.5 | 0.00 | 0.89 | 0.03 | 75 | 1008.4 |
| 20260506101801 | 15 | 166 | 8.0 | 14.5 | 0.00 | 0.89 | 0.03 | 76 | 1008.3 |
| 20260506101302 | 15 | 187 | 4.8 | 9.7 | 0.00 | 0.89 | 0.03 | 77 | 1008.4 |
| 20260506100028 | 15 | 201 | 4.8 | 14.5 | 0.00 | 0.89 | 0.03 | 75 | 1008.3 |
| 20260506095255 | 15 | 162 | 8.0 | 14.5 | 0.00 | 0.89 | 0.03 | 76 | 1008.4 |
| 20260506094753 | 15 | 202 | 4.8 | 14.5 | 0.00 | 0.89 | 0.03 | 75 | 1008.4 |
| 20260506094251 | 15 | 184 | 6.4 | 14.5 | 0.00 | 0.89 | 0.03 | 75 | 1008.3 |
| 20260506093752 | 15 | 192 | 8.0 | 16.1 | 0.00 | 0.89 | 0.03 | 74 | 1008.4 |
| 20260506093249 | 15 | 216 | 6.4 | 16.1 | 0.00 | 0.89 | 0.03 | 75 | 1008.3 |
| 20260506092748 | 15 | 206 | 4.8 | 12.9 | 0.00 | 0.89 | 0.03 | 74 | 1008.3 |
| 20260506092247 | 15 | 261 | 1.6 | 12.9 | 0.00 | 0.89 | 0.03 | 76 | 1008.2 |
| 20260506091743 | 15 | 189 | 3.2 | 8.0 | 0.00 | 0.89 | 0.03 | 77 | 1008.3 |
| 20260506090242 | 14 | 201 | 3.2 | 6.4 | 0.00 | 0.89 | 0.03 | 79 | 1008.2 |
| 20260506085240 | 14 | 206 | 1.6 | 6.4 | 0.00 | 0.89 | 0.03 | 79 | 1008.2 |
| 20260506084738 | 13 | 201 | 3.2 | 6.4 | 0.00 | 0.89 | 0.03 | 80 | 1008.3 |
| 20260506084236 | 13 | 141 | 1.6 | 6.4 | 0.00 | 0.89 | 0.03 | 81 | 1008.3 |
| 20260506084000 | 13 | 216 | 4.8 | 12.9 | 0.00 | 0.89 | 0.03 | 80 | 1008.3 |
| 20260506083233 | 13 | 211 | 4.8 | 12.9 | 0.00 | 0.89 | 0.03 | 82 | 1008.3 |
| 20260506082733 | 13 | 200 | 3.2 | 9.7 | 0.00 | 0.89 | 0.03 | 81 | 1008.4 |
| 20260506082233 | 13 | 206 | 3.2 | 12.9 | 0.00 | 0.89 | 0.03 | 82 | 1008.4 |